This is the latest recevied weather packets stored in our database for station/object K9MWD. If no packets are shown the sender has not sent any weather packets the latest 10 day(s).
| Time | Temp. | Humidity | Pressure | Rain* | Wind** | Luminosity | Snow |
|---|---|---|---|---|---|---|---|
| 1788117653 | 37.78° C | 35% | 1015.1 hPa | 0 mm | - | 851 W/m² | - |
| 1788117349 | 37.22° C | 35% | 1015.3 hPa | 0 mm | - | 851 W/m² | - |
| 1788117044 | 37.22° C | 35% | 1015.5 hPa | 0 mm | - | 854 W/m² | - |
| 1788116739 | 37.22° C | 35% | 1015.6 hPa | 0 mm | - | 861 W/m² | - |
| 1788116434 | 36.11° C | 37% | 1015.5 hPa | 0 mm | - | 860 W/m² | - |
| 1788116128 | 36.67° C | 36% | 1015.7 hPa | 0 mm | - | 862 W/m² | - |
| 1788115824 | 36.67° C | 37% | 1015.7 hPa | 0 mm | - | 865 W/m² | - |
| 1788115522 | 36.67° C | 38% | 1015.7 hPa | 0 mm | - | 865 W/m² | - |
| 1788115217 | 37.22° C | 37% | 1015.9 hPa | 0 mm | - | 869 W/m² | - |
| 1788114918 | 36.67° C | 38% | 1015.7 hPa | 0 mm | - | 868 W/m² | - |
| 1788114629 | 36.11° C | 36% | 1015.9 hPa | 0 mm | - | 868 W/m² | - |
| 1788114309 | 36.67° C | 36% | 1016.1 hPa | 0 mm | - | 868 W/m² | - |
| 1788114005 | 36.11° C | 40% | 1016.2 hPa | 0 mm | - | 871 W/m² | - |
| 1788113701 | 36.11° C | 37% | 1016.1 hPa | 0 mm | - | 865 W/m² | - |
| 1788113400 | 36.11° C | 38% | 1016.4 hPa | 0 mm | - | 864 W/m² | - |
| 1788113100 | 36.11° C | 38% | 1016.4 hPa | 0 mm | - | 864 W/m² | - |
| 1788112798 | 36.11° C | 41% | 1016.6 hPa | 0 mm | - | 861 W/m² | - |
| 1788112499 | 36.11° C | 39% | 1016.6 hPa | 0 mm | - | 862 W/m² | - |
| 1788112194 | 36.67° C | 38% | 1016.6 hPa | 0 mm | - | 856 W/m² | - |
| 1788111890 | 36.11° C | 39% | 1016.7 hPa | 0 mm | - | 853 W/m² | - |
| 1788111590 | 35° C | 40% | 1017 hPa | 0 mm | - | 850 W/m² | - |
| 1788111286 | 36.11° C | 39% | 1017 hPa | 0 mm | - | 847 W/m² | - |
| 1788110981 | 35.56° C | 41% | 1017 hPa | 0 mm | - | 842 W/m² | - |
| 1788110677 | 35.56° C | 42% | 1017 hPa | 0 mm | - | 837 W/m² | - |
| 1788110373 | 35° C | 42% | 1017.1 hPa | 0 mm | - | 830 W/m² | - |
* Rain latest hour (hover to see other rain measurements)
** Current wind speed in m/s (hover to see current wind gust speed)